sat.trackr.live / text

‹ back to catalog

YAOGAN-35 01A

NORAD 49390 · 2021-101A

PAYLOAD ACTIVE UNKNOWN

§ Identity

Operator
Country
PRC
Launch date
2021-11-06
Launch site
XICLF
Launch vehicle
Mass (kg)
RCS (m²)

External: N2YO · Heavens-Above · Gunter

§ Orbital elements

Epoch: 2026-09-20T19:18:21.305664Z

Period
94.25 min
Inclination
34.9953°
Eccentricity
0.0005646
Mean motion
15.27828838 rev/d
Perigee alt
478.4 km
Apogee alt
486.2 km
Semi-major
6,860.4 km
B*
2.4444e-4
RAAN
30.6328°
Arg perigee
167.9738°
Mean anomaly
192.1113°
Rev number
27,150

§ Raw data

YAOGAN-35 01A1 49390U 21101A   26263.80441326  .00006781  00000+0  24444-3 0  99992 49390  34.9953  30.6328 0005646 167.9738 192.1113 15.27828838271509

JSON: /api/v1/satellites/49390 · /tle

For live sub-satellite position, see the globe view (requires WebGL).

§ Visibility from observer

Set your observer location to see the next 7 days of passes ≥ 10°. The values pass through the URL so the page stays shareable.

No JS? Fill the form by hand. The geolocation button needs JavaScript.